Cosmos 1733 Rocket - Orbit

View from above orbital plane
View from above orbital plane
View from above satellite
View from above satellite

Ground track
Ground track

The orbit data is extracted from the following two-line orbital elements,

1 16612U 86018B   13137.13926635  .00000398  00000-0  45641-4 0  5955
2 16612 082.5181 255.4835 0018424 039.7011 015.5257 14.83215916370202
Epoch (UTC): 17 May 2013 03:20:32
Eccentricity: 0.0018424
inclination: 82.5181°
perigee height: 606 km
apogee height: 632 km
right ascension of ascending node: 255.4835°
argument of perigee: 39.7011°
revolutions per day: 14.83215916
mean anomaly at epoch: 15.5257°
orbit number at epoch: 37020

The dashed part of the orbit path shows where the satellite is in the earth's shadow,  

Developed and maintained by Chris Peat, Heavens-Above GmbH. Please read the updated FAQ before sending e-mail. Imprint. DLR